This demonstration page uses our WeatherBlox Daily Observations layout. Learn more.

Left ArrowRight Arrow

39.51506, -84.39828

Hourly Observations for June 15, 2021

Temp ( °F °C ) Dew Point ( °F °C ) Humidity (%) Winds ( mph kmh ) Pressure ( in mb ) Visibility ( mi km ) Precip ( " mm )
12:15 am 00:15 Clear 67 19.5 56 13.4 68 68 NNE 6 9 29.96 1014 10 16 N/A
12:35 am 00:35 Clear 65 18.6 56 13.6 73 73 N 5 7 29.96 1014 10 16 N/A
12:55 am 00:55 Clear 64 17.9 57 13.9 78 78 N 5 7 29.96 1015 10 16 N/A
1:15 am 01:15 Clear 63 17.3 58 14.2 82 82 N 6 9 29.97 1015 10 16 N/A
1:35 am 01:35 Clear 63 17.1 58 14.2 83 83 N 5 7 29.98 1015 10 16 N/A
1:55 am 01:55 Clear 62 16.5 57 14.1 86 86 N 6 9 29.98 1015 10 16 N/A
2:15 am 02:15 Clear 62 16.4 57 13.9 85 85 NNW 5 7 29.98 1015 10 16 N/A
2:35 am 02:35 Clear 61 16.2 57 13.7 85 85 N N/A 29.98 1015 10 16 N/A
2:55 am 02:55 Clear 61 16.2 56 13.5 84 84 NNE 3 6 29.98 1015 10 16 N/A
3:15 am 03:15 Clear 60 15.6 56 13.6 88 88 N N/A 29.99 1015 10 16 N/A
3:35 am 03:35 Clear 59 15 57 14 94 94 NW 3 6 29.99 1015 10 16 N/A
3:55 am 03:55 Clear 58 14.3 58 14.2 99 99 N 3 6 29.99 1016 10 16 N/A
4:15 am 04:15 Clear 57 14 55 13 94 94 N N/A 30.00 1016 10 16 N/A
4:35 am 04:35 Clear 57 14 57 13.7 98 98 NE 5 7 30.00 1016 10 16 N/A
4:55 am 04:55 Clear 59 15 56 13.4 90 90 NE 5 7 30.00 1016 10 16 N/A
5:15 am 05:15 Clear 56 13.2 55 12.8 97 97 WSW 3 6 30.00 1016 10 16 N/A
5:35 am 05:35 Clear 55 13 55 13 100 100 WSW 6 9 30.00 1016 10 16 N/A
5:55 am 05:55 Clear 55 13 55 12.8 99 99 SW 5 7 30.00 1016 10 16 N/A
6:15 am 06:15 Sunny 57 13.8 56 13.3 97 97 SW 5 7 30.01 1016 10 16 N/A
6:35 am 06:35 Sunny 55 13 55 13 100 100 SW 6 9 30.01 1016 10 16 N/A
6:55 am 06:55 Sunny 57 14.1 57 14 99 99 WSW 3 6 30.01 1016 10 16 N/A
7:15 am 07:15 Sunny 59 15 59 14.8 99 99 N N/A 30.02 1016 10 16 N/A
7:35 am 07:35 Sunny 61 15.9 58 14.5 91 91 N N/A 30.01 1016 10 16 N/A
7:55 am 07:55 Sunny 62 16.8 57 14.1 84 84 N N/A 30.01 1016 10 16 N/A
8:15 am 08:15 Sunny 64 17.9 59 15 83 83 N 3 6 30.02 1017 10 16 N/A
8:35 am 08:35 Sunny 67 19.3 57 13.9 71 71 NNE 6 9 30.03 1017 10 16 N/A
8:55 am 08:55 Sunny 68 19.8 56 13.5 67 67 N 7 11 30.03 1017 10 16 N/A
9:15 am 09:15 Sunny 69 20.4 56 13.5 65 65 NNE 6 9 30.02 1017 10 16 N/A
9:35 am 09:35 Sunny 69 20.8 56 13.5 63 63 NNE 7 11 30.02 1017 10 16 N/A
9:55 am 09:55 Sunny 71 21.8 58 14.3 63 63 N 6 9 30.03 1017 10 16 N/A
10:15 am 10:15 Sunny 72 22.1 56 13.6 59 59 NNW 8 13 30.02 1017 10 16 N/A
10:35 am 10:35 Sunny 72 22.4 56 13.6 58 58 NNE 8 13 30.02 1017 10 16 N/A
10:55 am 10:55 Sunny 74 23.3 57 14.1 56 56 NNE 8 13 30.02 1016 10 16 N/A
11:15 am 11:15 Partly Cloudy 74 23.6 58 14.3 56 56 NNW 9 15 30.02 1016 10 16 N/A
11:35 am 11:35 Sunny 75 23.8 57 13.9 54 54 N 10 17 30.01 1016 10 16 N/A
11:55 am 11:55 Partly Cloudy 76 24.5 57 13.8 51 51 N 14 22 30.01 1016 10 16 N/A
12:15 pm 12:15 Sunny 77 24.8 57 14.1 51 51 NNE 10 17 30.01 1016 10 16 N/A
12:35 pm 12:35 Partly Cloudy 76 24.4 55 12.8 48 48 NNE 16 26 30.01 1016 10 16 N/A
12:55 pm 12:55 Sunny 77 25 54 12.4 46 46 NNW 12 19 30.01 1016 10 16 N/A
1:15 pm 13:15 Partly Cloudy 76 24.3 54 12.3 47 47 NNE 15 24 30.01 1016 10 16 N/A
1:35 pm 13:35 Sunny 76 24.6 54 12.4 47 47 N 8 13 30.01 1016 10 16 N/A
1:55 pm 13:55 Partly Cloudy 76 24.6 55 12.7 48 48 N 13 20 30.00 1016 10 16 N/A
2:15 pm 14:15 Partly Cloudy 78 25.6 56 13.3 47 47 N 10 17 30.00 1016 10 16 N/A
2:35 pm 14:35 Partly Cloudy 78 25.5 56 13.4 47 47 NNE 12 19 29.99 1016 10 16 N/A
2:55 pm 14:55 Partly Cloudy 76 24.7 53 11.4 43 43 NNW 7 11 29.99 1016 10 16 N/A
3:15 pm 15:15 Partly Cloudy 79 25.9 53 11.6 41 41 N 7 11 29.98 1015 7 11 N/A
3:35 pm 15:35 Partly Cloudy 79 26.1 53 11.4 40 40 NW 9 15 29.98 1015 10 16 N/A
3:55 pm 15:55 Partly Cloudy 80 26.7 54 12.1 40 40 NW 13 20 29.98 1015 10 16 N/A
4:15 pm 16:15 Sunny 80 26.4 54 12.1 41 41 N 8 13 29.98 1015 10 16 N/A
4:35 pm 16:35 Mostly Cloudy 77 25.1 52 11.3 42 42 NNE 10 17 29.98 1015 10 16 N/A
4:55 pm 16:55 Mostly Cloudy 77 25.1 52 11.1 42 42 N 10 17 29.97 1015 10 16 N/A
5:15 pm 17:15 Cloudy 77 24.9 53 11.9 44 44 N 8 13 29.97 1015 10 16 N/A
5:35 pm 17:35 Mostly Cloudy 76 24.7 54 12.1 45 45 N 6 9 29.97 1015 10 16 N/A
5:55 pm 17:55 Partly Cloudy 80 26.4 54 12.4 42 42 N 8 13 29.97 1015 10 16 N/A
6:15 pm 18:15 Cloudy 78 25.6 53 11.7 42 42 NNE 10 17 29.97 1015 10 16 N/A
6:35 pm 18:35 Mostly Cloudy 80 26.4 53 11.8 40 40 NNE 10 17 29.97 1015 7 11 N/A
6:55 pm 18:55 Cloudy 78 25.3 53 11.7 43 43 NNE 9 15 29.96 1015 10 16 N/A
7:15 pm 19:15 Sunny 77 24.8 53 11.7 44 44 NNW 9 15 29.97 1015 10 16 N/A
7:35 pm 19:35 Partly Cloudy 77 25 54 12 44 44 NNE 8 13 29.96 1015 10 16 N/A
7:55 pm 19:55 Partly Cloudy 74 23.6 54 12.2 49 49 N 5 7 29.98 1015 10 16 N/A
8:15 pm 20:15 Mostly Cloudy 74 23.2 54 12.3 50 50 N 5 7 29.98 1015 10 16 N/A
8:35 pm 20:35 Sunny 73 22.6 56 13.2 55 55 N 3 6 29.97 1015 10 16 N/A
8:55 pm 20:55 Cloudy 71 21.6 59 14.8 65 65 NNW 3 6 29.97 1015 10 16 N/A
9:15 pm 21:15 Clear 69 20.5 60 15.5 73 73 N 3 6 29.97 1015 10 16 N/A
9:35 pm 21:35 Mostly Cloudy 67 19.7 60 15.5 77 77 N 3 6 29.99 1015 10 16 N/A
9:55 pm 21:55 Clear 66 18.8 60 15.3 80 80 N 3 6 29.99 1015 10 16 N/A
10:15 pm 22:15 Partly Cloudy 64 17.8 59 15.2 85 85 NNE 3 6 29.99 1016 10 16 N/A
10:35 pm 22:35 Mostly Cloudy 63 17 60 15.4 90 90 NE 3 6 30.00 1016 10 16 N/A
10:55 pm 22:55 Cloudy 64 17.8 59 15.2 85 85 N N/A 30.00 1016 10 16 N/A
11:15 pm 23:15 Mostly Cloudy 65 18.4 58 14.6 79 79 NNE 5 7 30.01 1016 10 16 N/A
11:35 pm 23:35 Partly Cloudy 65 18.2 57 14.1 77 77 N N/A 30.01 1016 10 16 N/A
11:55 pm 23:55 Clear 65 18.2 57 13.9 76 76 NNE 3 6 30.01 1016 10 16 N/A

Powered by AerisWeather